User: anonymous   Login
Location: Unspecified
(0.0000°N, 0.0000°E)
Time: 22:20:07
(UTC+00:00)
Language:

Courier 1B Rocket - Orbit

View from above orbital plane
View from above orbital plane
View from above satellite
View from above satellite

Ground track
Ground track

The orbit data is extracted from the following two-line orbital elements,

1 00059U 60013B   17326.52095085  .00000110  00000-0  30405-4 0  9995
2 00059  28.2507 356.0760 0189240 334.0166  25.0983 13.52955519819992
Epoch (UTC): 22 November 2017 12:30:10
Eccentricity: 0.0189240
inclination: 28.2507°
perigee height: 920 km
apogee height: 1202 km
right ascension of ascending node: 356.0760°
argument of perigee: 334.0166°
revolutions per day: 13.52955519
mean anomaly at epoch: 25.0983°
orbit number at epoch: 81999

The dashed part of the orbit path shows where the satellite is in the earth's shadow,  

DLR